Weather in Ovstug

Russia / Bryansk Oblast     53°22′13″N   33°52′39″E
temp.,
°C
wind,
m/s
gust,
m/s
humid.,
%
clouds,
%
prec.,
mm/h
press.,
hPa
HPBL,
m
18 april, sun
sun1800:00+5ssw4693100 0.5 1017411
03:00+5s4694100 1.6 1016792
06:00+4s3795100 1.1 1017556
09:00+6ese3582100 1.1 1018691
12:00+10e556498 0.1 10181369
15:00+9ne4567100 0.1 1019848
18:00+9nne4562100 0.0 1018289
21:00+7ne588752 0.9 1019666
19 april, mon
mon1900:00+4nne369515 0.0 1020149
03:00+3nne389715 0.0 1020195
06:00+5nne5888100 0.0 1019591
09:00+6nne5885100 0.0 1020714
12:00+7ne5781100 0.0 1020790
15:00+8ne4682100 0.2 1020712
18:00+6ne6892100 0.1 1020715
21:00+4ne5896100 0.3 1020589
20 april, tue
tue2000:00+3ne4796100 0.0 1019496
03:00+3ne3797100 0.1 1018413
06:00+4ne4897100 0.1 1016395
09:00+5ene589394 0.1 1015425
12:00+8e4785100 0.8 10141025
15:00+8ne5991100 1.6 1011697
18:00+7ene71393100 0.6 1008795
21:00+5ne81294100 4.8 1005888
21 april, wed
wed2100:00+3nne71497100 3.9 1000675
03:00+1nnw81498100 7.9 997483
06:00+2wnw91397100 2.9 997574
09:00+2w81397100 3.3 1000699
12:00+3wsw81397100 0.1 1003757
15:00+4wsw81397100 0.2 1007945
18:00+6wsw61182100 0.1 10101039
21:00+5sw51185100 0.1 1013331
22 april, thu
thu2200:00+4ssw41287100 0.0 1015273
03:00+2ssw499397 0.0 1016170
06:00+3ssw359576 0.2 1017116
09:00+8ssw468375 0.4 1018401
12:00+12ssw566954 0.5 10191098
15:00+14sw555963 1.8 10191349
18:00+13sw24650 0.8 1020361
21:00+9ssw22765 0.9 102110